[Date Prev][Date Next][Thread Prev][Thread Next][Date Index][Thread Index]

[jamsat-news:1695] jas2info #271



========================   最新情報   ==============================

        Last updated  20Apr2002  11:30(JST)   #271 

====================================================================
   
1)アマチュア通信衛星情報、FOシリーズの軌道要素、テレメトリ、QSOの
   状況等をまとめてみました.
   
 FO−29の2002年4月19日(金)の19:02(JST)のパスでは
JARLのホームページのとうりアナログ運用でした。 今日までの観測した
テレメトリーと最終の分析結果を報告しておきます。

AS278004C  19Apr2002
19:12-19:21(JST)
AOS   MEL  LOS  Elev
  7   289  209  56.6
Freq. 435.792-.786MHz

HI HI AE C7 88 55 00 D4 85 CF 09 33 76 A8 75 5F 99 8E B0 83 90 92 8D 89 87 
HI HI AE C7 88 55 00 D4 85 CF 09 33 7C 9A 76 5E 90 8D B0 66 90 92 8D 89 87 
HI HI AE 07 88 55 00 D4 85 CF 09 33 85 98 78 5E 8F 8D B0 66 90 92 8D 8A 87 
HI HI AE C7 88 55 00 D4 75 CF 09 33 8B 8E 79 4A 91 8E 9C 7D 90 92 8D 8A 87 
HI HI AE C7 88 55 00 D4 85 CF 09 33 8F 7D 78 5E 8F 8D B1 54 90 92 8C 8A 87 
HI HI AE 07 88 55 00 D4 85 CF 09 33 90 6D 77 5F 90 8D B0 93 90 92 8C 8A 87 
HI HI AE C7 88 55 00 D$ 85 CF 09 33 8E 5F 74 4E 91 8E 9B 7B 90 91 8C 8A 87 
HI HI AE C7 88 55 00 D4 85 CF 09 33 89 4F 6E 5E 8F 8D B0 75 90 91 8C 8A 87 
HI HI AE 07 78 55 00 D4 85 CF 09 33 81 44 6B 5F 90 8D B0 86 90 91 8C 8A 87 
HI HI AE C7 88 55 00 D4 85 CF 09 33 77 3E 6A 52 90 8E 9B 7C 90 91 8C 8A 87 
HI HI AE C7 88 55 00 D4 85 CF 09 33 6B 38 6B 5E 8F 8D B0 63 90 91 8C 8A 87 
HI HI AE 07 88 55 00 D4 85 CF 09 33 5F 3A 6A 5F 90 8E B0 78 90 91 8C 8A 87 

AS27992C  18Apr2002
19:58-20:15(JST)
AOS   MEL  LOS  Elev
358   297  235  23.7
Freq. 435.802-.787MHz

HI HI AE C7 88 55 00 D4 00 00 09 00 A0 81 67 5E 90 8D B0 81 92 8D 8F 92 89 
HI HI AE 07 88 55 00 D4 00 00 09 00 9C 7E 67 53 91 8E 9B 5D 92 8D 8F 91 89 
HI HI AE 07 88 55 00 D4 00 00 09 00 96 78 65 5E 8F 8D B0 6D 92 8D 8F 92 89 
HI HI AE 07 88 55 00 D4 00 00 09 00 92 75 64 5E 90 8E 9B 5F 92 8D 8F 92 89 
HI HI AE 07 88 55 00 D4 00 00 09 00 89 70 66 54 91 8E 9C 77 92 8D 8F 92 89 
HI HI AE 07 88 55 00 D4 00 00 09 00 81 6B 64 5E 90 8D B0 73 92 8D 8F 92 89 
HI HI AE 07 88 55 00 D4 00 00 09 00 7A 69 63 55 90 8D 9B 85 92 8D 8F 92 89 
HI HI AE 07 88 55 00 D4 00 00 09 00 71 66 62 56 90 8E 9B 6E 92 8D 8F 92 89 
HI HI AE 07 88 55 00 D4 00 00 09 00 6A 65 63 56 91 8E 9B 6B 92 8D 8F 92 89 
HI HI AE 07 88 55 00 D4 00 00 09 00 62 65 62 56 90 8E 9B 86 92 8D 8F 93 89 
HI HI AE 07 88 55 00 D4 00 00 09 00 5A 66 66 54 91 8E 9C 77 92 8D 8F 93 89 
HI HI AE C7 88 55 00 D4 00 00 09 00 54 68 6D 53 91 8E 9B 9F 92 8D 8F 93 89 
HI HI AE 07 88 55 00 D4 00 98 09 00 4E 6A 6F 5E 8F 8D 9A 64 92 8D 8F 93 89 
HI HI AE 07 88 55 00 D4 00 00 09 00 4A 6E 74 5E 8F 8D B0 81 93 8D 8F 93 89 
HI HI AE 07 88 55 00 D4 00 00 09 00 48 72 76 5E 8F 8D 9B 70 93 8D 8F 93 89 
HI HI AE C7 88 55 00 D4 00 00 09 00 46 78 78 4B 91 8E 9C 60 93 8D 8F 93 8A 
HI HI AE C7 88 55 00 D4 00 00 09 00 49 81 77 5E 91 8E B0 77 93 8D 8F 93 89 
HI HI AE C7 88 55 00 D4 00 00 09 00 4C 8A 77 5F 91 8E B0 87 93 8D 8F 93 8A 
HI HI AE C7 88 55 00 D4 00 00 09 00 4F 8C 76 5F 90 8D B0 65 93 8E 8F 93 89 
HI HI AE 07 88 55 00 D4 00 00 09 00 54 8F 73 5E 90 8D B0 90 93 8D 8F 93 89 
HI HI AE 07 88 55 00 D4 00 00 09 00 59 90 

AS27977C  17Apr2002
17:22-17:38(JST)
AOS   MEL  LOS  Elev
 26    93  160  31.2
Freq. 435.802-.788MHz

HI HI AE 07 88 55 00 D4 98 52 09 5D 9B 46 75 5E 8F 8D B0 70 8D 8A 8C 8D 85 
HI HI AE 07 88 55 00 D4 98 52 09 5D 98 43 78 5E 8F 8D B0 82 8D 8A 8C 8D 85 
HI HI AE C7 88 55 00 D4 98 52 09 5D 95 43 7A 5F 90 8E B0 73 8D 8A 8C 8C 85 
HI HI AE C7 88 55 00 D4 98 52 09 5D 91 41 79 4A 92 8F B0 71 8D 8A 8C 8C 85 
HI HI AE C7 88 55 00 D4 98 52 09 5D 8E 41 79 4B 91 8E 9C 8A 8D 8A 8C 8C 85 
HI HI AE C7 88 55 00 D4 98 52 09 5D 8A 41 78 4F 90 8D 9B B6 8D 8A 8C 8C 85 
HI HI AE C7 88 55 00 D4 98 52 09 5D 86 43 77 5E 8E 8C B0 70 8D 8A 8C 8B 85 
HI HI AE 07 88 55 00 D4 98 52 09 5D 83 47 77 5E 8F 8D B0 6A 8D 8B 8C 8B 85 
HI HI AE 07 88 55 00 D4 98 52 09 5D 7F 4B 77 5E 8F 8D B0 74 8D 8B 8C 8C 85 
HI HI AE 07 88 55 00 D4 98 52 09 5D 7D 52 76 5F 90 8D B0 7A 8D 8B 8C 8B 85 
HI HI AE C7 88 55 00 D4 98 52 09 5D 7A 5A 75 4C 92 8E B0 5E 8D 8B 8C 8B 85 
HI HI AE C7 88 55 00 D4 98 52 09 5D 78 62 73 4F 91 8E 9B 77 8C 8B 8C 8B 85 
HI HI AE C7 88 55 00 D4 98 52 09 5D 75 69 70 53 8F 8D 9A 83 8C 8B 8C 8B 85 
HI HI AE 07 88 55 00 D4 98 52 09 5D 73 72 6D 5E 8F 8C B0 68 8C 8B 8C 8B 85 
HI HI AE 07 88 55 00 D4 98 52 09 5D 71 7A 6F 5E 90 8D B0 94 8C 8B 8C 8B 85 
HI HI AE C7 88 55 00 D4 98 52 09 5D 70 85 78 4D 91 8E B0 6E 8C 8B 8D 8B 85 
HI HI AE C7 88 55 00 D4 98 52 09 5D 6F 8C 75 4C 91 8E 9C 74 8C 8B 8D 8A 85 
HI HI AE C7 88 55 00 D4 98 52 09 5D 6D 91 73 52 8F 8D 9B 63 8B 8B 8C 8A 85 
HI HI AE C7 88 55 00 D4 98 52 09 5D 6C 97 72 5E 8F 8C B0 68 8B 8B 8D 8A 85
HI HI AE C7 88 55 00 D4 98 52 09 5D 6A 9B 72 5E 8F 8D B0 6C 8B 8B 8D 8A 85 
HI HI AE 07 88 55 00 D4 98 52 09 5D 68 9D 72 5F 90 8D

AS27951C  15Apr2002
19:11-19:31(JST)
AOS   MEL  LOS  Elev
  6   289  212  51.2
Freq. 435.802-.786MHz

HI HI AE 07 88 55 00 D4 90 32 09 5D AA 69 55 5D 8D 8A 98 7A 8E 89 89 8D 85 
HI HI AE 07 88 55 00 D4 90 32 09 5D AA 73 58 5C 8D 8B 98 64 8E 88 89 8D 85 
HI HI AE 07 88 55 00 D4 90 32 09 5D A8 7E 5D 59 8E 8C 99 95 8E 88 89 8D 85 
HI HI AE 07 88 55 00 D4 90 32 09 5D A5 88 5E 57 8F 8D 9A 6E 8E 89 89 8D 85 
HI HI AE 07 88 55 00 D4 90 32 09 5D A1 92 63 55 91 8E 9B 82 8E 89 89 8E 85 
HI HI AE C7 88 55 00 D4 90 32 09 5D 9A 99 68 5E 8E 8C B0 7C 8F 89 89 8D 85 
HI HI AE 07 88 55 00 D4 90 32 09 5D 93 80 6C 5F 8F 8D B0 55 8E 88 89 8E 85 
HI HI AE C7 88 55 00 D4 90 32 09 5D 8A A6 71 4F 90 8D 9B 64 8E 88 89 8E 85 
HI HI AE C7 88 55 00 D4 90 32 09 5D 80 AA 71 5E 8F 8D B0 77 8F 88 89 8E 85 
HI HI AE 07 88 55 00 D4 90 32 09 5D 76 AB 73 5F 8F 8D B0 6A 8F 88 89 8E 85 
HI HI AE C7 88 55 00 D4 90 32 09 5D 6C AC 74 4E 90 8E 9B 86 8E 88 89 8E 85 
HI HI AE C7 88 55 00 D4 90 32 09 5D 61 A8 73 5E 8F 8D B0 88 8E 88 8A 8E 85 
HI HI AE 07 88 55 00 D4 90 32 09 5D 58 A4 73 5E 90 8D B0 6C 8E 88 8A 8E 85 
HI HI AE 07 88 55 00 D4 90 32 09 5D 50 A0 71 5E 90 8D B0 75 8E 88 8A 8E 85 
HI HI AE 07 88 55 00 D4 90 32 09 5D 42 92 6D 5E 8F 8D B0 82 8E 87 8A 8E 85 
HI HI AE C7 88 55 00 D4 90 32 09 5D 3F 8D 6C 52 90 8D 9B 7B 8E 87 8A 8E 85 
HI HI AE C7 88 55 00 D4 90 32 09 5D 3C 86 69 5E 8F 8C B0 77 8E 87 8A 8E 85 
HI HI AE 07 88 55 00 D4 90 32 09 5D 3C 82 69 5F 8F 8E B0 A8 8D 87 8A 8E 85 
HI HI AE C7 88 55 00 D4 90 32 09 5D 3D 80 6E 50 90 8E 9B 73 8D 87 8A 8E 85 
HI HI AE C7 88 55 00 D4 90 32 09 5D 3F 7E 6F 5E 8F 8D B0 AA 8D 87 8A 8E 85 
HI HI AE C7 88 55 00 D4 90 32 09 5D 42 7E 72 5F 90 8D B0 73 8D 87 8A 8E 85 
HI HI AE C7 88 55 00 D4 90 32 09 5D 46 82 77 4B 91 8F 9C 9C 8D 87 8A 8E 85 
HI HI AE C7 88 55 00 D4 90 32 09 5D 4A 84 77 5E 8F 8C B0 79 8D 87 8A 8E 85 
HI HI AE 07 88 55 00 D4 90 32 09 5D 4D 89 78 5E 8F 8D B0 61 8D 87 8A 8E 85 
HI HI AE C7 88 55 00 D4 90 32 09 5D 50 8F 78 5F 90 8E B0 72 8D 87 8B 8D 85 
HI HI AE C7 88 55 00 D4 90 32 09 5D 53 96 78 4C 91 8F 9C 74 8D 87 8A 8D 85 

------------------------ FO-29の軌道要素 ------------------------------        
 
  ■ 軌道要素1:「jamsat−keps:1095」より         
          SB KEPS @ AMSAT  $ORB02108.N
          2Line Orbital Elements 02108.AMSAT

HR AMSAT ORBITAL ELEMENTS FOR AMATEUR SATELLITES IN NASA FORMAT
FROM WA5QGD FORT WORTH,TX April 18, 2002
SEND SUBSCRIBE/UNSUBSCRIBE TO majordomo@amsat.org ONLY
BID: ORB02108.N

 DECODE 2-LINE ELSETS WITH THE FOLLOWING KEY:
 1 AAAAAU 00  0  0 BBBBB.BBBBBBBB  .CCCCCCCC  00000-0  00000-0 0  DDDZ
 2 AAAAA EEE.EEEE FFF.FFFF GGGGGGG HHH.HHHH III.IIII JJ.JJJJJJJJKKKKKZ
 KEY: A-CATALOGNUM B-EPOCHTIME C-DECAY D-ELSETNUM E-INCLINATION F-RAAN
 G-ECCENTRICITY H-ARGPERIGEE I-MNANOM J-MNMOTION K-ORBITNUM Z-CHECKSUM

FO-29
1 24278U 96046B   02107.91477672  .00000062  00000-0  10186-3 0 05017
2 24278 098.5132 296.2571 0350571 291.8412 064.5790 13.52834155279841

 ■ 軌道要素2:「jamsat−keps:1096」より
        SB KEPS @ AMSAT  $ORB02108.O
        Orbital Elements  02108.OSCAR

HR AMSAT ORBITAL ELEMENTS FOR OSCAR SATELLITES
FROM WA5QGD FORT WORTH,TX April 18, 2002
SEND SUBSCRIBE/UNSUBSCRIBE TO majordomo@amsat.org ONLY
BID: ORB02108.O
TO ALL RADIO AMATEURS BT
 
Satellite: FO-29
Catalog number: 24278
Epoch time:      02107.91477672
Element set:    0501
Inclination:      098.5132 deg
RA of node:       296.2571 deg
Eccentricity:    0.0350571
Arg of perigee:   291.8412 deg
Mean anomaly:     064.5790 deg
Mean motion:   13.52834155 rev/day
Decay rate:        6.2e-07 rev/day^2
Epoch rev:           27984
Checksum:              318

-------------------  FO-29(JAS-2)のテレメトリに関する情報  ---------------------- 
 
2)上記2002年4月19日(金)のテレメトリの最終行を分析しておきます.

AS278004C  19Apr2002
19:12-19:21(JST)
AOS   MEL  LOS  Elev
  7   289  209  56.6
Freq. 435.792-.786MHz

HI HI AE 07 88 55 00 D4 85 CF 09 33 5F 3A 6A 5F 90 8E B0 78 90 91 8C 8A 87 
 
テレメトリ   内 容         換算算値 単 位
3C	磁気センサーZ軸=	46568.6	[nT]
3D	磁気センサX軸	=	28431.4	[nT]
4A	太陽電池発生電流=	 1039.2	[mA]
4B	B充放電電流	=	 -138.0	[mA]
4C	B端子電圧	=	   15.5	[V]
4D	B中間端子電圧	=	    6.8	[V]
5A	バス電圧	=	   17.3	[V]
5B	JTA送信電力	=	  681.9	[mW]
5C 	構体温度1	=	   26.0	[℃]
5D	構体温度2	=	   25.6	[℃]
6A	構体温度3	=	   27.5	[℃]
6B	構体温度4	=	   28.3	[℃]
6C	Bセル温度	=	   29.5	[℃]

 ========================== FO-29(ふじ3号)のテレメトリ分析、QSO情報等 =====================
   
 3)[jamsat-bb:

 =================================================================================================
 
 4)JARL のホームページに運用予定が記載されていましたのでご紹介します.
       ( http://www.jarl.or.jp/Japanese/3_Fuji/new/uy.htm )
       
        *** 運用予定について ***

   4月01日(月) 〜 6月30日(日)アナログ系運用 

  *なお,運用予定は都合により,変更することがありますので,あらかじめご了承願います。

 照会先 : lab@jarl.or.jp

 最新の情報はテレホンサービス(03−3942−1000)をお聞きください。  
 以後の運用につきましては平成14年7月上旬にお知らせいたします。        
     
-----------------------    FO−20(JAS-1b)道要素   -------------------------
  
  ■ 軌道要素1 :出典はFO-29「ふじ3号」に同じ.
  
FO-20
1 20480U 90013C   02107.61281268  .00000037  00000-0  15915-3 0 04080
2 20480 099.0223 123.5745 0540245 339.5977 018.4260 12.83315233571141
 
  ■ 軌道要素2 :出典はFO−29「ふじ3号」に同じ.
               
